#timestamp,LO_Frequency,Hit,StdDev 
1514023215.4,286046993.7,N
1514023235.2,286046994.1,N
1514023255.1,286046993.4,N
1514023256.0,286046993.4,N
1514023275.8,286046993.7,N
1514023295.7,286046994.1,N
1514023315.5,286046994.5,N
1514023335.3,286046992.2,Y
1514023355.2,286046994.9,P
1514023375.0,286046995.1,P
1514023375.9,286046995.1,P
1514023395.8,286046995.4,Y
1514023415.6,286047000.7,P
1514023435.4,286046999.8,N
1514023455.3,286046998.8,N
1514023475.1,286046998.9,N
1514023495.9,286046998.2,N
1514023515.7,286046999.3,N
1514023535.5,286046998.9,N
1514023555.4,286046999.5,N
1514023575.2,286046996.7,N
1514023595.0,286046996.7,N
1514023595.9,286046996.7,N
1514023615.8,286046994.9,Y
1514023635.6,286046997.4,P
1514023655.5,286046997.9,P
1514023675.3,286046995.3,P
1514023695.1,286046995.6,Y
1514023715.9,286046999.2,P
1514023735.7,286046997.0,P
1514023755.6,286046998.0,N
1514023775.4,286046997.9,N
1514023795.2,286046996.4,Y
1514023815.1,286046997.7,P
1514023816.0,286046997.7,P
1514023835.8,286046997.5,P
1514023855.7,286046996.7,Y
1514023875.5,286047000.4,P
1514023895.3,286047000.4,N
1514023915.2,286047001.0,N
1514023935.0,286046998.4,N
1514023935.9,286046998.4,N
1514023955.8,286046999.1,N
1514023975.6,286046999.5,N
1514023995.4,286046998.9,N
1514024015.3,286046997.1,N
1514024035.1,286046999.2,N
1514024055.8,286046996.5,Y
1514024075.7,286047000.5,P
1514024095.5,286046999.8,N
1514024115.4,286047001.1,N
1514024135.2,286047000.9,N
1514024155.0,286046999.5,N
1514024155.9,286046999.5,N
1514024175.8,286046996.5,Y
1514024195.6,286046999.5,P
1514024215.5,286046996.6,P
1514024235.3,286046996.8,N
1514024255.1,286046999.1,N
1514024275.9,286046999.1,N
1514024295.7,286046999.5,N
1514024315.5,286046997.3,N
1514024335.4,286046999.5,N
1514024355.2,286046998.6,N
1514024375.1,286046999.4,N
1514024376.0,286046999.4,N
1514024395.8,286046997.0,N
1514024415.6,286046996.5,Y
1514024435.5,286046998.8,P
1514024455.3,286046998.4,P
1514024475.2,286046999.4,P
1514024495.9,286046998.5,Y
1514024515.7,286047001.0,P
1514024535.6,286046998.7,N
1514024555.4,286046997.9,N
1514024575.3,286046994.3,Y
1514024595.1,286046991.8,P
1514024596.0,286046991.8,N
1514024615.8,286046992.4,N
1514024635.7,286046990.9,N
1514024655.5,286046990.8,Y
1514024675.3,286046999.5,P
1514024695.2,286046999.2,N
1514024715.0,286046999.5,N
1514024715.9,286046999.5,N
1514024735.8,286046999.0,N
1514024755.6,286046998.7,N
1514024775.4,286046999.2,N
1514024795.3,286046999.1,N
1514024815.1,286047000.8,N
1514024835.9,286046999.2,N
1514024855.7,286046998.5,N
1514024875.5,286046997.2,N
1514024895.4,286046998.0,N
1514024915.2,286046996.3,N
1514024935.1,286046993.8,Y
1514024936.0,286046993.8,P
1514024955.8,286046994.9,N
1514024975.6,286046995.4,N
1514024995.5,286046999.5,N
1514025015.3,286046998.6,N
1514025035.1,286046998.2,N
1514025055.9,286047000.3,N
1514025075.7,286047001.4,N
1514025095.6,286047003.7,N
1514025115.4,286047003.9,N
1514025135.2,286047003.6,N
1514025155.1,286047004.1,N
1514025156.0,286047004.1,N
1514025175.8,286047001.7,N
1514025195.7,286047002.6,N
1514025215.5,286047001.0,N
1514025235.3,286047000.0,N
1514025255.2,286046999.8,N
1514025275.0,286047000.4,N
1514025275.9,286047000.4,N
1514025295.7,286047002.2,N
1514025315.6,286047000.2,N
1514025335.4,286046999.7,N
1514025355.3,286047002.8,N
1514025375.1,286047000.9,N
1514025376.0,286047000.9,N
1514025395.8,286046998.9,N
1514025415.7,286046996.6,N
1514025435.5,286046997.0,N
1514025455.3,286046997.1,N
1514025475.2,286046996.7,N
1514025495.0,286046998.0,N
1514025495.9,286046998.0,N
1514025515.8,286046995.5,N
1514025535.6,286046996.2,N
1514025555.4,286046996.0,N
1514025575.3,286046995.9,N
1514025595.1,286046996.4,N
1514025615.9,286046996.0,N
1514025635.7,286046993.5,N
1514025655.5,286046993.4,N
1514025675.4,286046993.9,N
1514025695.2,286046996.2,N
1514025715.0,286046996.4,N
1514025716.0,286046996.4,N
1514025735.8,286046993.4,N
1514025755.6,286046993.5,N
1514025775.5,286046994.4,N
1514025795.3,286046992.6,N
1514025815.1,286046992.0,N
1514025835.9,286046994.7,N
1514025855.7,286046994.8,N
1514025875.6,286046993.5,N
1514025895.4,286046994.5,N
1514025915.2,286046991.7,Y
1514025935.1,286046998.0,P
1514025936.0,286046998.0,N
1514025955.8,286046994.9,P
1514025975.6,286046997.1,N
1514025995.5,286046995.5,Y
1514026015.3,286046999.1,P
1514026035.2,286046997.3,N
1514026055.9,286046995.2,P
1514026075.7,286046997.5,N
1514026095.6,286046993.8,Y
1514026115.4,286046996.8,P
1514026135.3,286046998.0,P
1514026155.1,286046997.4,P
1514026156.0,286046997.4,Y
1514026175.8,286046998.3,P
1514026195.7,286047000.9,N
1514026215.5,286046998.6,N
1514026235.4,286047000.7,N
1514026255.2,286047000.0,N
1514026275.0,286047000.9,N
1514026275.9,286047000.9,N
1514026295.8,286047000.3,N
1514026315.6,286046998.5,N
1514026335.4,286047000.4,N
1514026355.3,286046998.2,N
1514026375.1,286047000.7,N
1514026395.9,286047000.5,N
1514026415.7,286047001.5,N
1514026435.5,286047002.5,N
1514026455.4,286046998.7,N
1514026475.2,286046996.7,N
1514026495.1,286046995.1,Y
1514026496.0,286046995.1,P
1514026515.8,286046997.8,N
1514026535.6,286046997.5,N
1514026555.5,286046998.8,N
1514026575.3,286046999.6,N
1514026595.1,286046996.5,N
1514026615.9,286046997.5,N
1514026635.7,286046997.3,N
1514026655.6,286046999.0,N
1514026675.4,286046996.9,N
1514026695.2,286046994.9,Y
1514026715.1,286046995.3,P
1514026716.0,286046995.3,P
1514026735.8,286046994.6,P
1514026755.7,286046994.0,Y
1514026775.5,286046999.4,P
1514026795.3,286046998.5,N
